Location: Newark
(49.8348°N, 24.0280°E)
Time: 14:25:01
(UTC+00:00)

deb Explorer IX - Pass Details

Date: 02 February 2020
Orbit: 549 x 1099 km, 38.8° (Epoch: 28 February)

Event Time Altitude Azimuth Distance (km) Brightness Sun altitude
Rises 16:28:55 0° 210° (SSW) 3,284 ? -11.4°
Reaches altitude 10° 16:32:06 10° 191° (SSW) 2,467 ? -11.9°
Maximum altitude 16:35:51 17° 152° (SSE) 2,108 ? -12.5°
Enters shadow 16:39:42 11° 114° (ESE) 2,664 ? -13.1°
